EN

Hourly Weather Lagwy

Today, 5 August, Thursday

Time Temperature Precipitation Wind Pressure Humidity
00:00 +16°C° 0 mm 2 mps 752 mmHg 85%
01:00 +16°C° 0 mm 2 mps 752 mmHg 84%
02:00 +15°C° 0 mm 2 mps 752 mmHg 86%
03:00 +15°C° 0 mm 2 mps 752 mmHg 87%
04:00 +14°C° 0 mm 3 mps 751 mmHg 89%
05:00 +16°C° 0 mm 3 mps 751 mmHg 85%
06:00 +17°C° 0 mm 3 mps 751 mmHg 81%
07:00 +18°C° 0 mm 4 mps 751 mmHg 76%
08:00 +19°C° 0 mm 4 mps 751 mmHg 69%
09:00 +21°C° 0 mm 4 mps 751 mmHg 62%
10:00 +22°C° 0 mm 4 mps 750 mmHg 55%
11:00 +22°C° 0.1 mm 4 mps 750 mmHg 55%
12:00 +22°C° 0.1 mm 4 mps 750 mmHg 54%
13:00 +23°C° 0 mm 4 mps 750 mmHg 53%
14:00 +22°C° 0.3 mm 4 mps 749 mmHg 54%
15:00 +22°C° 0.3 mm 4 mps 749 mmHg 55%
16:00 +22°C° 0.3 mm 3 mps 749 mmHg 56%
17:00 +21°C° 0.2 mm 3 mps 749 mmHg 58%
18:00 +20°C° 0.2 mm 2 mps 749 mmHg 60%
19:00 +20°C° 0.2 mm 2 mps 748 mmHg 63%
20:00 +19°C° 0 mm 2 mps 748 mmHg 66%
21:00 +18°C° 0 mm 2 mps 748 mmHg 70%
22:00 +17°C° 0 mm 2 mps 748 mmHg 73%
23:00 +17°C° 0 mm 2 mps 748 mmHg 75%

Tomorrow, 6 August, Friday

Time Temperature Precipitation Wind Pressure Humidity
00:00 +17°C° 0 mm 2 mps 748 mmHg 76%
01:00 +16°C° 0 mm 2 mps 748 mmHg 78%
02:00 +16°C° 0 mm 2 mps 748 mmHg 79%
03:00 +16°C° 0 mm 2 mps 747 mmHg 81%
04:00 +16°C° 0 mm 2 mps 747 mmHg 83%
05:00 +16°C° 0 mm 2 mps 747 mmHg 79%
06:00 +17°C° 0 mm 2 mps 747 mmHg 76%
07:00 +18°C° 0 mm 2 mps 747 mmHg 73%
08:00 +19°C° 0 mm 2 mps 747 mmHg 64%
09:00 +21°C° 0 mm 3 mps 747 mmHg 56%
10:00 +22°C° 0 mm 3 mps 747 mmHg 48%
11:00 +24°C° 0 mm 3 mps 747 mmHg 44%
12:00 +24°C° 0 mm 3 mps 747 mmHg 40%
13:00 +25°C° 0 mm 3 mps 747 mmHg 37%
14:00 +25°C° 0 mm 3 mps 747 mmHg 36%
15:00 +25°C° 0 mm 3 mps 747 mmHg 36%
16:00 +23°C° 0 mm 4 mps 747 mmHg 36%
17:00 +22°C° 0 mm 3 mps 747 mmHg 39%
18:00 +21°C° 0 mm 3 mps 747 mmHg 41%
19:00 +20°C° 0 mm 3 mps 747 mmHg 44%
20:00 +19°C° 0 mm 3 mps 747 mmHg 49%
21:00 +17°C° 0 mm 3 mps 747 mmHg 53%
22:00 +16°C° 0 mm 3 mps 748 mmHg 58%
23:00 +16°C° 0 mm 2 mps 747 mmHg 59%

Day after tomorrow, 7 August, Saturday

Time Temperature Precipitation Wind Pressure Humidity
00:00 +16°C° 0 mm 2 mps 747 mmHg 60%
01:00 +16°C° 0 mm 2 mps 747 mmHg 62%
02:00 +16°C° 0 mm 2 mps 747 mmHg 67%
03:00 +15°C° 0 mm 2 mps 747 mmHg 72%
04:00 +15°C° 0 mm 2 mps 747 mmHg 77%
05:00 +16°C° 0 mm 3 mps 747 mmHg 77%
06:00 +17°C° 0 mm 3 mps 748 mmHg 76%
07:00 +19°C° 0 mm 4 mps 748 mmHg 76%
08:00 +20°C° 0 mm 4 mps 748 mmHg 69%
09:00 +22°C° 0 mm 4 mps 748 mmHg 61%
10:00 +25°C° 0 mm 4 mps 748 mmHg 54%
11:00 +25°C° 0 mm 4 mps 748 mmHg 50%
12:00 +26°C° 0 mm 4 mps 748 mmHg 46%
13:00 +27°C° 0 mm 4 mps 748 mmHg 42%
14:00 +28°C° 0 mm 3 mps 748 mmHg 40%
15:00 +28°C° 0 mm 3 mps 748 mmHg 38%
16:00 +28°C° 0 mm 3 mps 747 mmHg 36%
17:00 +27°C° 0 mm 2 mps 747 mmHg 40%
18:00 +26°C° 0 mm 2 mps 747 mmHg 44%
19:00 +24°C° 0 mm 1 mps 747 mmHg 49%
20:00 +23°C° 0 mm 2 mps 747 mmHg 52%
21:00 +21°C° 0 mm 2 mps 747 mmHg 54%
22:00 +20°C° 0 mm 2 mps 747 mmHg 57%
23:00 +20°C° 0.1 mm 2 mps 747 mmHg 62%

8 August, Sunday

Time Temperature Precipitation Wind Pressure Humidity
00:00 +19°C° 0.1 mm 3 mps 747 mmHg 67%
01:00 +19°C° 0.1 mm 3 mps 746 mmHg 72%
02:00 +19°C° 0.3 mm 3 mps 746 mmHg 76%
03:00 +19°C° 0.3 mm 2 mps 746 mmHg 79%
04:00 +18°C° 0.3 mm 2 mps 745 mmHg 83%
05:00 +18°C° 0.3 mm 3 mps 746 mmHg 86%
06:00 +16°C° 0.3 mm 5 mps 746 mmHg 90%
07:00 +16°C° 0.3 mm 6 mps 747 mmHg 93%
08:00 +17°C° 0.1 mm 6 mps 747 mmHg 87%
09:00 +17°C° 0.1 mm 6 mps 748 mmHg 82%
10:00 +18°C° 0.1 mm 7 mps 749 mmHg 77%
11:00 +21°C° 0 mm 7 mps 749 mmHg 67%
12:00 +23°C° 0 mm 7 mps 750 mmHg 57%
13:00 +26°C° 0 mm 7 mps 750 mmHg 47%
14:00 +26°C° 0 mm 6 mps 750 mmHg 45%
15:00 +26°C° 0 mm 6 mps 751 mmHg 43%
16:00 +26°C° 0 mm 6 mps 751 mmHg 41%
17:00 +25°C° 0 mm 5 mps 751 mmHg 46%
18:00 +22°C° 0 mm 4 mps 752 mmHg 50%
19:00 +21°C° 0 mm 3 mps 752 mmHg 55%
20:00 +20°C° 0.1 mm 3 mps 753 mmHg 60%
21:00 +19°C° 0.1 mm 4 mps 753 mmHg 65%
22:00 +18°C° 0.1 mm 4 mps 754 mmHg 70%
23:00 +18°C° 0 mm 4 mps 754 mmHg 74%

9 August, Monday

Time Temperature Precipitation Wind Pressure Humidity
00:00 +17°C° 0 mm 4 mps 755 mmHg 77%
01:00 +16°C° 0 mm 3 mps 755 mmHg 81%
02:00 +16°C° 0 mm 3 mps 755 mmHg 84%
03:00 +14°C° 0 mm 3 mps 755 mmHg 87%
04:00 +13°C° 0 mm 4 mps 755 mmHg 90%
05:00 +14°C° 0 mm 4 mps 756 mmHg 84%
06:00 +15°C° 0 mm 4 mps 756 mmHg 78%
07:00 +17°C° 0 mm 4 mps 756 mmHg 72%
08:00 +19°C° 0 mm 4 mps 756 mmHg 65%
09:00 +20°C° 0 mm 4 mps 756 mmHg 58%
10:00 +22°C° 0 mm 4 mps 756 mmHg 51%
11:00 +23°C° 0 mm 4 mps 756 mmHg 47%
12:00 +23°C° 0 mm 4 mps 756 mmHg 43%
13:00 +25°C° 0 mm 4 mps 756 mmHg 40%
14:00 +25°C° 0 mm 4 mps 756 mmHg 38%
15:00 +25°C° 0 mm 4 mps 756 mmHg 37%
16:00 +26°C° 0 mm 4 mps 756 mmHg 35%
17:00 +23°C° 0 mm 4 mps 756 mmHg 40%
18:00 +22°C° 0 mm 3 mps 756 mmHg 45%
19:00 +21°C° 0 mm 2 mps 756 mmHg 50%
20:00 +20°C° 0 mm 2 mps 756 mmHg 55%
21:00 +19°C° 0 mm 2 mps 756 mmHg 60%
22:00 +18°C° 0 mm 2 mps 756 mmHg 65%
23:00 +17°C° 0 mm 2 mps 757 mmHg 70%

10 August, Tuesday

Time Temperature Precipitation Wind Pressure Humidity
00:00 +16°C° 0 mm 2 mps 757 mmHg 74%
01:00 +16°C° 0 mm 2 mps 757 mmHg 79%
02:00 +15°C° 0 mm 2 mps 757 mmHg 82%
03:00 +15°C° 0 mm 2 mps 756 mmHg 85%
04:00 +14°C° 0 mm 2 mps 756 mmHg 87%
05:00 +15°C° 0 mm 2 mps 756 mmHg 82%
06:00 +17°C° 0 mm 3 mps 757 mmHg 77%
07:00 +18°C° 0 mm 3 mps 757 mmHg 72%
08:00 +20°C° 0 mm 3 mps 756 mmHg 64%
09:00 +21°C° 0 mm 4 mps 756 mmHg 57%
10:00 +23°C° 0 mm 4 mps 756 mmHg 50%
11:00 +23°C° 0.1 mm 5 mps 756 mmHg 47%
12:00 +25°C° 0.1 mm 5 mps 756 mmHg 44%
13:00 +26°C° 0.1 mm 5 mps 755 mmHg 41%
14:00 +25°C° 0 mm 5 mps 755 mmHg 43%
15:00 +23°C° 0 mm 4 mps 755 mmHg 46%
16:00 +22°C° 0 mm 3 mps 755 mmHg 48%
17:00 +22°C° 0.1 mm 3 mps 755 mmHg 51%
18:00 +21°C° 0.1 mm 2 mps 755 mmHg 55%
19:00 +20°C° 0.1 mm 2 mps 755 mmHg 58%
20:00 +19°C° 0.4 mm 2 mps 755 mmHg 66%
21:00 +17°C° 0.4 mm 2 mps 755 mmHg 73%
22:00 +16°C° 0.4 mm 2 mps 756 mmHg 81%
23:00 +16°C° 0.1 mm 2 mps 756 mmHg 84%
Show more